Regional Weather Roundup
Issued by NWS

Home | Current Version | Previous Version | Text Only | Print | Product List | Glossary On
Versions: 1 2 3 4 5 6 7 8 9 10 11 12 13 14 15 16 17 18 19 20 21 22 23 24 25 26 27 28 29 30 31 32 33 34 35 36 37 38 39 40 41 42 43 44 45 46 47 48 49 50
000
ASCA44 KEWX 281820
RWRMX

LATIN AMERICA AND CARIBBEAN REGIONAL WEATHER ROUNDUP
NATIONAL WEATHER SERVICE AUSTIN/SAN ANTONIO TX
100 PM CDT MON JUL 28 2014

NOTE: "FAIR" INDICATED FEW OR NO CLOUDS BELOW 12,000 FEET WITH NO
SIGNIFICANT WEATHER AND/OR OBSTRUCTIONS TO VISIBILITY.

BAJA CALIFORNIA

CITY           SKY/WX    TMP DP  RH WIND       PRES   REMARKS
LORETO           N/A    N/A N/A N/A MISG        N/A
LA PAZ         MOSUNNY   95  63  34 NE7       30.01  HX  96
MEXICALI       MOSUNNY   99  63  30 CALM      29.98  HX 100
S.J. DEL CABO  PTSUNNY   91  68  46 CALM      30.01F HX  95
TIJUANA        MOSUNNY   84  61  45 W7        30.09S

NORTHWESTERN MEXICO

CITY           SKY/WX    TMP DP  RH WIND       PRES   REMARKS
CULIACAN       MOSUNNY   93  77  59 NW8       29.99  HX 107
DURANGO        MOSUNNY   79  52  38 NW6       30.36F
GUAYMAS        PTSUNNY   95  79  59 E12       29.95  HX 112
HERMOSILLO     MOSUNNY   97  66  36 SE12      30.05  HX 100
CD. JUAREZ     PTSUNNY   81  59  47 N14       30.22
LOS MOCHIS     MOSUNNY   91  68  46 NW8       29.99F HX  95
OBREGON        PTSUNNY   93  66  40 N6        29.97  HX  96

NORTHEASTERN MEXICO

CITY           SKY/WX    TMP DP  RH WIND       PRES   REMARKS
CHIHUAHUA      MOSUNNY   86  54  32 N14       30.29
MATAMOROS      MOSUNNY   93  75  55 SE21      30.10  HX 104
MONCLOVA       SUNNY     93  59  31 NE10      30.10S HX  92
MONTERREY      SUNNY     90  64  43 E14       30.08F HX  91
NUEVO LAREDO   SUNNY     95  72  46 S6        30.07  HX 103
PIEDRAS NEGRAS MOSUNNY   88  72  58 SE7       30.11F HX  94
REYNOSA        MOSUNNY   93  64  38 E9        30.06  HX  95
SALTILLO       SUNNY     88  59  37 N6        30.29F
TORREON        MOSUNNY   88  52  29 N6        30.20F
CD. VICTORIA   MOSUNNY   91  66  43 S9G21     30.07  HX  94

WESTERN MEXICO

CITY           SKY/WX    TMP DP  RH WIND       PRES   REMARKS
AGUASCALIENTES MOSUNNY   75  52  43 N7        30.39
COLIMA         MOSUNNY   82  70  65 CALM      30.13F
DEL BAJIO      PTSUNNY   75  54  46 NE5       30.41F
GUADALAJARA    PTSUNNY   77  59  53 CALM      30.30
MANZANILLO     MOSUNNY   91  77  62 S7        29.95S HX 105
MAZATLAN       PTSUNNY   86  72  62 S6        29.98F HX  92
P. VALLARTA      N/A    N/A N/A N/A MISG        N/A
URUAPAN        SUNNY     73  57  56 S9        30.31S
ZACATECAS      MOSUNNY   75  45  33 NE6       30.42F

CENTRAL MEXICO

CITY           SKY/WX    TMP DP  RH WIND       PRES   REMARKS
CUERNAVACA     PTSUNNY   77  55  47 W3        30.27F
MEXICO CITY    MOSUNNY   66  50  55 NE3       30.47F
MORELIA        MOSUNNY   72  55  56 CALM      30.36
POZA RICA      PTSUNNY   91  79  66 N7        30.10F HX 107
PUEBLA         MOSUNNY   73  46  38 CALM      30.45F
QUERETARO      MOSUNNY   77  55  47 NE2       30.42F
S. LUIS POTOSI PTSUNNY   73  52  46 NE6       30.38F
TAMPICO        MOSUNNY   90  68  48 SE14      30.09F HX  93
TOLUCA         PTSUNNY   70  46  43 SE8       30.51F

SOUTHERN MEXICO

CITY           SKY/WX    TMP DP  RH WIND       PRES   REMARKS
ACAPULCO       CLOUDY    88  75  66 W12       29.94F HX  97
B. DE HUATULCO CLOUDY    91  75  59 S12       29.95  HX 102
OAXACA         CLOUDY    75  54  46 CALM      30.33F
P. ESCONDIDO   PTSUNNY   86  73  66 SW9       30.06S HX  93
VERACRUZ       PTSUNNY   88  75  66 CALM      30.06S HX  97
ZIHUATANEJO    PTSUNNY   88  75  66 CALM      29.97  HX  97

YUCATAN PENINSULA

CITY           SKY/WX    TMP DP  RH WIND       PRES   REMARKS
CAMPECHE       MOSUNNY   91  73  55 CALM      30.03F HX 100
CANCUN         PTSUNNY   91  75  59 E7        30.08F HX 102
CHETUMAL       MOSUNNY   90  77  66 CALM      30.04F HX 102
CD. DEL CARMEN PTSUNNY   86  73  66 CALM      30.04  HX  93
COZUMEL        MOSUNNY   88  77  70 NE14      30.08S HX 100
MERIDA         PTSUNNY   91  70  49 CALM      30.07F HX  97
MINATITLAN     PTSUNNY   86  73  66 N12       30.03  HX  93
TAPACHULA      MOSUNNY   90  90 100 CALM      29.92S HX 129
TUX. GUTIERREZ PTSUNNY   84  70  61 CALM      30.05F
VILLAHERMOSA   CLOUDY    90  72  55 NE10      30.04F HX  96

CENTRAL AMERICA

CITY           SKY/WX    TMP DP  RH WIND       PRES   REMARKS
BELIZE CITY    MOSUNNY   86  79  79 E8        30.03F HX  99
MANAGUA        PTCLDY    91  73  55 E12       29.86F HX 100

CARIBBEAN

CITY           SKY/WX    TMP DP  RH WIND       PRES   REMARKS
ARUBA          PTSUNNY   86  79  79 E20       29.94F HX  99
CURACAO        MOSUNNY   90  73  58 SE18      29.97F HX  98
KINGSTON       MOSUNNY   90  77  66 SE30      29.97S HX 102
NASSAU         MOSUNNY   91  75  59 N8        30.09F HX 102
SAN JUAN       MOSUNNY   88  73  62 NE20      30.05F HX  96
SANTO DOMINGO  MOSUNNY   88  75  66 S7        30.00F HX  97
ST. CROIX      MOSUNNY   90  73  58 E16       30.06F HX  98
ST. KITTS      MOSUNNY   88  73  62 NE13      30.06S HX  96
ST. MAARTEN    MOSUNNY   86  72  62 E12       30.03F HX  92
ST. THOMAS     MOSUNNY   86  75  70 SE16      30.05F HX  95

$$




USA.gov is the U.S. government's official web portal to all federal, state and local government web resources and services.